GFSMA_con_3kmhel_009.txt.gz
Helicity
-34 -28 -19 -11 -22 -31 -27 -24 -26 -25 -12 6 -49 -51 -33 -21 -18 -14 -21 25 3 16 13 19 16 31 27 19 12 8 14 11 18 16 9 16 20 15 21 18 18 18 13
-31 -19 -13 -12 -19 -17 -24 -12 -8 -22 -11 9 -4 22 4 1 -12 -15 -20 19 20 16 14 19 13 18 22 22 13 6 2 10 15 12 13 14 15 22 28 26 19 17 18
-4 -10 -14 -11 -7 57 23 23 11 47 16 15 21 24 28 16 4 -11 -6 -14 42 1 -1 19 25 15 18 15 25 26 -7 -2 22 21 23 17 22 33 37 30 27 23 20
-5 -6 0 -1 37 16 34 14 11 -16 14 20 21 26 17 11 10 11 5 -12 -19 -7 10 5 0 7 13 10 11 19 21 -4 -1 7 5 25 26 36 37 34 35 26 21
-2 -7 -10 -33 3 -5 44 32 25 40 80 27 29 31 23 17 -3 48 19 -1 30 -4 20 11 -33 2 5 2 3 4 12 20 13 15 13 23 35 30 35 27 28 20 20
6 13 -6 48 2 32 15 31 69 74 52 18 15 19 34 22 -6 17 17 21 23 6 20 79 22 22 -8 -23 -3 -7 -3 4 11 9 13 15 32 31 -3 28 13 14 12
20 44 0 46 28 6 79 89 63 31 40 71 11 18 70 19 37 -5 39 22 25 40 60 37 78 60 40 62 99 111 104 74 13 4 23 25 12 11 31 -15 -13 -3 5
22 51 23 35 66 43 62 63 39 39 37 69 21 15 32 81 25 65 51 22 31 39 49 45 55 57 107 71 61 96 112 120 107 104 90 77 25 24 13 26 10 -7 -8
16 22 24 15 65 32 36 63 32 32 17 70 33 31 35 98 51 108 40 55 6 47 38 29 40 39 66 76 36 65 95 103 105 114 121 128 133 119 89 44 24 23 12
16 15 0 10 18 -6 65 48 33 9 19 29 59 34 38 64 89 80 48 114 43 23 28 17 48 41 23 64 70 72 73 78 80 79 81 91 104 109 108 117 91 45 27
-21 -5 8 16 10 7 52 20 34 12 21 10 23 37 51 23 48 61 75 56 27 65 67 30 51 25 37 18 50 71 45 60 77 90 96 95 95 96 99 97 97 98 78
-1 13 32 41 30 20 53 26 20 4 -12 16 -1 36 34 39 56 58 65 55 64 35 54 76 51 50 45 44 53 112 55 39 48 61 72 87 93 99 108 112 101 97 96
18 87 48 60 50 46 60 51 47 11 13 5 16 -6 28 37 40 43 35 41 59 38 57 76 71 107 108 61 78 78 51 53 48 42 53 54 61 72 81 92 100 104 102
24 122 83 77 43 76 57 75 66 35 40 29 18 8 9 37 10 32 33 51 33 16 43 107 60 83 78 82 110 86 48 64 67 54 64 61 58 50 57 68 75 78 84
55 126 90 66 76 69 69 72 47 84 47 43 19 26 -4 1 9 13 24 54 52 42 44 30 72 54 95 63 119 109 54 66 71 68 94 74 66 63 51 55 65 60 57
47 179 132 96 122 118 157 100 52 79 68 37 22 28 17 0 5 6 32 17 17 24 21 21 34 59 99 106 70 109 64 60 82 89 105 109 92 87 69 54 58 60 54
140 160 187 155 176 119 136 262 43 43 105 72 36 30 23 10 0 -3 26 37 61 24 28 20 47 65 86 78 70 74 62 71 71 69 116 97 93 109 111 68 61 55 55
195 169 188 190 249 209 272 254 100 63 83 81 57 49 28 15 59 25 7 7 26 54 36 24 39 50 55 45 74 75 89 54 51 41 102 138 144 120 105 90 83 80 78
255 186 240 266 375 222 208 156 230 140 70 67 63 52 46 28 39 -1 17 23 37 44 67 43 33 50 38 72 49 82 101 115 97 47 101 230 197 146 108 129 143 137 127
357 333 371 382 452 337 316 136 148 207 73 65 74 58 59 63 69 68 47 58 56 45 24 49 72 90 96 79 80 121 97 103 111 79 51 67 81 155 150 157 166 122 116
339 403 460 528 543 454 408 283 196 270 106 73 79 82 66 58 57 77 98 87 68 72 64 68 62 89 77 71 92 107 88 98 107 56 109 78 57 66 82 78 70 97 83
247 320 466 545 549 403 314 313 227 224 95 117 124 97 78 126 150 167 146 143 134 102 104 118 111 108 103 103 92 100 103 121 124 100 106 99 104 76 80 77 58 55 46
220 336 468 484 464 405 353 224 182 184 101 106 100 101 90 102 162 139 162 175 166 95 124 140 138 125 111 107 114 110 113 120 108 87 99 91 83 78 75 55 41 40 -29
168 216 281 396 366 200 196 213 198 139 99 99 95 111 118 76 109 160 157 201 136 113 121 152 149 144 120 132 143 117 109 102 83 92 93 84 66 67 62 73 69 47 -1
159 214 225 349 233 140 174 199 206 144 105 98 87 93 105 150 140 198 217 213 147 143 109 107 158 167 141 102 78 79 67 89 90 99 72 75 80 63 75 78 91 87 114
161 191 156 189 137 111 159 172 139 133 102 126 120 125 141 124 273 221 171 157 149 110 85 93 142 129 88 82 88 126 105 87 92 89 61 88 54 43 51 85 109 130 87

GFSMA_con_3kmhel_015.txt.gz
Helicity
33 12 23 3 38 13 13 15 39 32 1 -6 33 48 52 20 33 43 15 32 24 30 56 53 51 36 45 41 36 42 26 26 23 15 22 27 27 25 26 18 18 17 9
50 60 25 28 41 41 26 46 12 18 -9 -3 22 24 61 36 47 87 45 31 39 33 30 45 40 37 34 39 34 37 47 43 25 -1 6 16 19 19 25 20 25 16 12
33 60 30 42 18 70 34 40 47 16 30 30 43 48 59 42 34 19 31 55 31 22 19 20 29 37 30 33 31 37 38 37 41 1 1 21 26 23 26 22 29 27 23
63 36 28 21 24 40 40 46 40 45 29 52 45 -1 36 38 16 19 10 30 24 14 1 10 14 25 31 32 27 25 22 24 40 42 41 37 34 30 29 30 33 30 31
47 31 30 33 39 32 64 82 57 55 49 54 31 65 42 30 14 11 32 0 27 38 20 -7 5 2 6 3 1 4 11 13 17 13 1 29 35 35 36 32 30 32 31
57 31 11 65 40 78 81 57 49 47 47 45 33 16 -8 -5 29 20 47 50 81 33 14 -12 -10 -3 11 -6 -5 -8 -4 1 2 -2 -1 9 29 36 44 45 40 34 25
54 36 52 59 67 61 75 61 64 59 28 41 22 -1 -42 -20 52 31 78 98 131 76 120 56 31 54 37 56 60 62 64 15 -3 -19 -17 -13 -7 -8 15 34 38 34 38
64 97 80 48 37 58 71 83 54 51 33 20 41 28 26 1 24 41 53 27 85 87 46 40 35 39 60 48 32 43 69 81 97 102 111 107 101 58 -8 -18 6 17 23
134 88 64 57 36 77 129 116 55 64 46 3 27 40 44 37 50 71 56 28 58 24 28 35 30 31 45 39 34 40 50 67 71 73 78 87 94 96 96 93 88 12 28
120 109 90 55 82 84 118 79 71 59 62 29 -5 35 32 49 79 71 63 37 61 34 34 -14 30 28 53 39 42 30 39 42 42 55 63 69 77 77 74 73 75 77 75
114 111 74 80 84 71 72 116 89 72 98 127 81 49 45 58 93 104 86 53 50 35 28 57 50 35 82 84 83 64 62 27 10 30 48 48 49 60 70 73 74 72 74
74 50 102 129 96 79 109 87 58 52 50 108 107 105 86 54 82 101 132 127 124 88 20 8 47 79 76 103 111 86 74 37 35 18 20 25 34 44 35 37 62 73 73
61 67 146 167 119 90 79 79 107 71 73 104 51 73 98 84 88 94 66 50 85 65 63 47 57 72 108 145 127 128 95 65 48 28 36 26 19 16 20 13 17 10 38
86 128 157 171 124 90 85 73 88 71 29 55 113 133 133 102 93 92 88 82 44 35 38 51 79 74 98 129 144 152 118 96 59 40 32 26 43 24 26 26 22 16 10
83 122 188 204 161 100 111 128 134 117 73 29 53 95 138 156 148 129 104 88 73 46 40 56 61 103 109 122 104 139 135 102 77 85 100 87 83 103 91 56 44 42 38
99 168 222 227 208 146 168 177 172 115 121 49 69 96 104 178 176 132 105 89 87 74 41 44 37 41 53 85 80 113 120 108 82 100 116 122 141 143 145 144 139 100 56
166 205 262 292 261 231 212 236 214 211 161 110 106 102 82 142 121 74 105 106 97 86 79 57 37 30 55 50 54 74 83 94 119 87 96 98 114 113 107 120 137 135 120
193 271 314 356 313 285 283 328 281 254 226 150 118 126 126 165 139 81 77 79 97 77 82 56 55 59 54 57 76 87 77 79 92 63 58 67 87 87 80 99 138 170 151
214 334 409 423 437 389 361 380 357 301 263 180 157 119 113 160 146 98 86 78 76 56 94 101 91 89 78 97 106 100 89 69 74 81 55 48 53 51 65 84 125 130 162
250 333 414 462 449 452 425 418 407 337 315 250 180 148 145 163 138 107 128 97 75 81 92 98 97 94 119 95 118 124 96 68 38 55 62 66 77 80 83 79 80 86 119
257 342 417 454 489 488 461 468 426 343 334 282 214 178 159 156 125 117 141 106 111 115 93 126 157 146 144 135 85 86 57 24 41 51 55 85 91 82 61 41 13 24 36
232 330 381 420 431 424 404 463 468 408 335 250 227 184 173 166 135 116 127 118 133 134 155 194 178 153 132 124 96 81 71 76 55 49 90 51 43 46 72 84 67 89 98
226 272 281 352 371 365 378 336 378 376 352 305 258 205 148 177 135 110 109 70 96 79 152 179 150 146 145 136 127 118 116 126 139 123 104 67 101 108 76 85 60 57 86
233 249 276 349 323 380 411 326 250 304 307 274 246 213 193 133 128 126 111 183 117 72 101 144 143 120 149 132 163 156 148 138 151 103 121 109 92 107 71 75 30 50 32
272 301 335 320 361 389 357 301 294 264 243 196 177 188 203 126 78 109 113 112 72 93 88 71 105 113 114 100 117 177 144 171 133 125 110 130 84 79 67 64 39 47 60
370 310 330 286 307 280 231 178 195 174 132 119 114 129 159 126 103 124 96 85 105 104 92 108 123 111 95 94 83 180 133 172 161 117 59 96 103 88 48 55 80 103 115

GFSMA_con_3kmhel_021.txt.gz
Helicity
3 12 4 -1 21 6 2 -2 1 3 13 36 26 77 56 61 20 6 -11 8 14 26 11 17 46 43 40 38 27 29 27 23 20 23 17 27 30 30 23 19 14 16 17
2 24 17 17 28 27 42 9 -4 2 20 37 37 30 41 57 71 33 -6 -9 12 24 11 9 19 31 36 32 37 35 31 24 21 17 13 -12 14 37 34 20 22 21 20
19 31 40 26 29 23 26 18 19 19 31 21 80 42 4 2 19 9 1 -3 -21 5 6 4 12 8 7 12 21 29 30 32 38 23 13 18 16 34 35 36 25 19 17
30 43 52 45 37 48 68 39 48 44 45 59 79 35 8 1 17 8 3 8 -2 -21 -14 -1 1 1 -1 -2 -1 2 6 18 26 32 27 41 23 16 29 33 30 20 28
60 54 50 39 51 76 64 67 50 43 39 51 52 45 21 -2 8 19 -4 11 11 -5 -14 -12 -4 -7 -6 1 3 -3 -1 1 13 22 29 25 25 33 28 29 28 24 20
49 42 34 45 69 63 47 37 37 43 65 63 19 31 20 -11 17 14 19 26 10 13 6 3 -11 -9 -8 -20 -16 -14 -10 -5 -9 -6 -3 1 13 9 19 23 25 20 15
36 51 46 76 77 40 36 50 60 61 57 49 27 15 17 20 39 41 9 37 37 17 15 20 18 20 16 10 6 3 -1 -10 -13 -19 -18 -10 -4 -7 -9 -16 6 19 23
47 64 66 83 62 37 56 84 79 35 37 29 24 26 32 9 50 44 21 18 27 21 18 14 21 30 28 19 13 11 11 32 42 43 48 66 71 66 74 62 17 -7 4
32 81 79 70 66 67 86 76 64 62 75 28 0 7 38 49 62 48 44 16 37 15 7 5 4 2 19 25 31 27 26 27 34 37 39 47 61 71 78 82 81 77 69
10 58 54 57 59 66 86 89 77 74 108 59 35 44 50 64 97 80 77 48 52 45 8 18 16 8 -1 3 12 10 16 25 35 30 29 32 35 40 49 57 58 64 72
7 34 71 75 57 51 49 66 84 66 82 59 53 56 59 64 92 82 106 100 71 72 48 24 33 25 20 9 6 -2 9 7 19 26 23 21 25 27 36 48 51 52 52
-21 3 54 81 77 40 47 58 66 66 56 57 65 79 72 69 93 109 98 98 96 82 82 86 66 46 53 62 37 15 9 6 10 1 3 -2 1 16 32 43 49 53 55
-50 -34 33 60 76 54 58 62 75 77 66 48 63 72 74 78 98 124 83 81 85 69 74 66 75 64 76 86 86 57 44 37 16 14 4 -20 -15 -1 17 30 46 52 51
-14 -4 49 72 80 73 64 64 86 93 92 73 62 64 75 84 105 126 121 98 70 75 88 54 61 58 66 90 94 97 82 73 62 40 26 14 7 -7 -10 12 33 48 50
-15 -17 49 83 89 86 87 93 100 106 120 113 90 72 71 90 103 116 120 108 94 62 49 59 59 45 35 52 57 78 97 92 92 80 68 50 49 48 47 38 42 46 50
-27 -25 33 69 73 104 104 110 111 106 135 120 135 137 109 93 103 120 127 125 107 92 57 56 54 55 41 24 27 42 45 49 46 54 49 42 60 59 58 62 54 50 42
-11 -12 26 83 96 109 120 127 122 137 146 145 151 160 145 128 103 128 135 143 116 114 88 62 48 58 57 55 56 49 49 49 61 43 42 27 22 32 37 49 55 44 42
28 17 18 55 94 113 133 154 154 158 156 157 150 172 167 191 121 108 137 138 116 108 80 57 78 62 55 77 47 46 47 53 59 51 59 52 47 40 43 40 39 44 52
26 40 48 71 110 132 155 166 174 189 180 170 191 204 173 211 193 130 126 137 136 119 89 79 71 60 64 69 68 68 73 60 73 78 67 51 64 81 90 112 109 83 72
75 67 104 116 130 161 186 195 233 239 220 213 231 205 179 198 208 167 141 148 158 146 126 86 71 66 70 68 84 78 76 85 89 78 66 60 83 82 77 73 76 81 91
76 129 161 157 180 190 217 247 276 292 262 242 288 215 155 131 134 159 161 133 152 139 140 136 119 117 118 103 63 54 91 87 94 107 107 103 98 81 79 90 91 86 78
113 179 202 230 253 253 245 272 316 320 296 309 321 200 153 116 82 88 127 139 163 158 166 163 167 167 152 160 83 100 127 116 111 106 113 104 123 105 93 82 55 64 71
189 196 203 240 251 232 240 290 314 324 342 338 264 224 153 144 113 95 86 105 121 152 164 192 172 137 117 129 100 121 126 146 151 138 185 147 137 118 102 101 53 43 41
192 218 229 236 202 173 213 252 265 289 279 260 228 205 192 155 159 134 112 118 114 140 165 157 173 120 99 92 149 131 123 138 159 142 197 148 128 122 112 66 38 29 32
177 219 238 206 157 158 156 178 256 245 243 212 180 145 163 151 123 118 134 127 116 102 119 89 99 85 86 79 105 149 140 166 153 138 133 148 89 87 66 57 35 8 5
164 236 207 177 160 190 156 167 247 248 221 204 157 165 140 137 105 116 130 157 114 87 93 117 135 121 113 84 110 151 174 162 154 127 88 96 85 49 19 33 19 25 30

GFSMA_con_3kmhel_024.txt.gz
Helicity
-3 -2 -1 4 11 -0 12 1 12 13 -13 6 17 50 39 27 42 -0 -6 -1 10 18 -4 15 34 32 29 25 27 25 18 12 -5 -8 -7 10 14 11 10 8 9 6 4
-2 5 10 11 12 15 13 28 5 5 -10 -5 20 23 30 24 23 10 -9 -6 -8 29 16 1 9 32 27 22 28 32 25 31 15 -5 4 -3 -4 13 21 17 13 12 22
13 11 17 21 25 24 31 22 28 40 21 28 43 48 31 13 -14 -0 -6 -3 -14 -21 -0 -6 -8 -3 8 23 25 24 36 32 24 22 13 8 -2 -8 25 19 16 20 11
24 26 29 32 31 34 47 56 35 41 26 23 39 49 20 2 17 7 7 -1 -13 -25 -30 -11 -4 -0 1 1 -4 9 2 9 12 24 32 23 11 -4 14 21 24 21 29
43 34 39 33 43 43 49 61 59 58 44 25 30 39 35 -11 -10 -0 19 9 4 -11 -29 -25 -9 -6 -5 -8 -11 -13 -13 -6 5 18 27 8 -0 4 6 5 5 11 19
40 50 49 46 59 63 61 59 57 54 56 37 19 13 24 1 3 -7 -1 -2 13 4 -3 -11 -19 -21 -12 -17 -8 -13 -14 -17 -19 -18 -5 -10 4 5 5 4 6 10 21
29 58 59 60 64 55 46 48 40 56 58 38 17 -4 -4 12 13 2 -7 2 -6 13 17 11 2 15 -3 -7 7 11 11 -0 -4 -18 -34 -30 -24 -14 -12 -4 -7 -16 -3
29 59 67 59 50 39 31 30 60 64 50 27 24 2 1 -28 -18 -1 -5 -2 -25 -25 -1 14 18 28 28 10 14 36 40 42 43 48 63 79 77 72 60 56 50 40 3
39 57 53 35 26 42 29 52 90 92 44 23 34 34 30 34 28 -5 -3 11 -1 -12 -11 -10 -6 2 9 15 22 26 29 33 41 44 46 52 63 69 65 58 61 59 59
43 35 23 11 16 30 29 48 74 71 52 36 31 30 50 65 91 60 40 50 39 16 -7 -1 3 7 1 -6 -6 -10 1 9 16 28 34 36 42 52 60 64 66 64 66
31 4 -2 4 25 39 21 34 57 77 64 49 65 64 68 80 91 91 68 74 63 51 38 31 17 12 9 13 2 -11 -21 -9 3 12 11 21 23 33 44 52 59 62 69
-2 -38 -39 -1 28 20 14 26 38 49 52 27 30 48 61 74 91 108 69 54 73 69 65 65 54 37 30 36 34 19 -1 -11 -19 -14 -4 -5 4 21 36 44 52 59 65
-25 -53 -44 -20 23 36 19 21 49 50 54 51 51 33 49 61 73 89 90 53 35 44 48 55 51 54 48 54 49 50 26 14 6 2 -4 -3 8 20 30 31 37 44 46
25 -26 -37 -12 26 39 20 25 43 49 62 63 76 64 55 67 90 110 108 120 73 38 38 57 54 35 20 39 55 47 50 43 33 31 6 -23 -16 -4 5 14 21 30 43
26 -19 -33 -9 25 47 45 40 43 54 70 75 75 93 79 71 82 102 110 119 125 80 42 26 29 43 28 22 25 29 33 31 35 28 25 5 -18 -9 -2 -6 2 11 13
38 -35 -40 -25 18 42 58 65 46 55 89 88 91 118 124 111 94 94 101 106 121 113 60 28 28 37 36 42 37 34 32 30 25 22 35 28 14 -5 -1 10 7 2 -4
65 -14 -26 -14 -3 44 69 88 70 78 102 98 99 121 123 133 144 133 126 125 121 146 89 57 28 42 44 48 47 47 49 48 44 39 46 55 63 52 34 29 29 28 29
93 24 11 14 7 39 91 108 103 104 109 115 119 149 124 125 143 156 159 125 117 127 129 85 52 58 70 61 46 62 53 38 44 43 60 99 101 75 59 60 57 63 68
102 56 40 21 27 44 105 113 132 149 137 139 153 173 161 177 151 141 133 126 101 131 149 119 88 92 95 84 79 90 117 89 57 48 55 63 62 62 67 66 64 64 64
134 68 44 64 63 55 94 134 157 175 160 133 152 188 168 181 163 160 141 107 110 116 128 121 79 85 91 100 103 118 119 94 64 67 67 70 76 90 65 56 55 70 71
120 106 98 86 93 85 103 160 178 196 190 157 173 214 177 170 123 137 160 154 129 147 157 123 120 122 135 154 145 140 124 101 78 71 74 84 96 97 79 80 60 42 47
129 110 85 96 106 93 101 175 203 209 201 204 224 227 213 194 136 150 135 150 153 200 194 183 143 148 125 165 150 119 107 89 34 74 91 91 108 96 72 92 66 50 52
180 136 103 112 100 105 151 203 227 233 201 227 248 253 240 168 121 149 139 149 173 139 153 159 180 174 135 140 126 121 108 110 104 108 126 112 125 104 98 93 59 60 50
192 181 157 152 139 144 191 213 246 224 201 228 227 221 184 162 171 192 184 202 176 120 110 123 162 133 120 120 119 119 134 126 118 103 148 164 129 121 106 87 59 32 38
219 189 198 204 174 167 213 238 257 226 208 200 224 211 195 170 184 211 206 195 162 112 87 88 100 125 111 112 133 150 141 150 145 136 148 157 128 124 110 75 49 33 31
265 275 216 194 165 174 219 234 250 260 211 211 228 194 206 164 188 223 187 164 138 131 124 142 143 144 116 128 119 107 126 130 150 136 127 121 115 98 74 76 59 44 43

GFSMA_con_3kmhel_030.txt.gz
Helicity
5 15 -4 8 8 10 21 20 6 16 19 10 28 9 -2 -2 -0 -4 -9 -31 -16 -5 6 12 18 27 21 15 18 17 12 6 6 2 -5 -4 -5 6 8 2 -2 1 -1
3 10 4 3 9 12 11 39 -5 -1 34 21 25 14 -9 5 -2 5 -2 -28 -17 -5 -7 8 14 16 27 26 19 15 14 13 10 8 1 -5 -1 -1 1 -3 -11 -8 -6
-3 17 3 8 3 9 6 24 22 19 29 32 16 11 16 -20 21 -6 8 2 -13 -15 -10 -12 1 13 15 11 17 17 15 21 30 28 17 3 -6 -2 3 -14 -15 -11 -7
8 12 1 7 6 23 6 24 10 6 21 32 19 -6 -3 22 -15 5 1 5 -13 29 -16 -11 -7 3 2 1 1 3 4 18 23 31 30 18 11 -5 -13 -13 -16 -17 -14
6 13 4 13 13 10 7 12 23 23 29 36 40 13 -0 21 22 36 16 -3 4 -15 24 -1 1 6 7 2 -2 -2 1 2 9 12 13 17 22 10 17 -13 -16 -12 -8
-3 2 7 -1 13 6 5 10 4 23 15 5 -19 8 -9 -0 -2 2 12 14 27 9 9 4 12 29 15 -3 11 18 12 5 3 -0 1 -10 5 -5 9 4 -9 -9 -5
-13 -0 8 22 11 2 2 21 28 23 24 13 5 -5 3 1 -8 -6 -5 13 12 8 23 20 -6 16 34 32 44 39 45 41 34 40 37 49 48 39 53 42 34 13 55
-9 -8 11 5 -0 -11 14 33 22 7 3 12 6 10 23 26 14 -2 -4 2 -0 11 16 10 28 29 18 29 54 50 52 57 62 64 69 77 91 106 114 105 88 94 75
-7 -6 -9 -1 -14 -17 20 39 41 24 7 25 9 3 21 24 36 37 23 4 11 3 9 7 13 18 16 47 23 41 48 58 70 77 79 75 75 77 83 85 78 79 80
2 -9 -16 -6 -29 -27 -6 18 28 30 32 34 34 24 -5 7 23 48 33 30 25 18 19 12 29 22 15 20 24 50 28 35 49 58 62 66 63 66 70 69 68 67 72
-1 -3 -12 -34 -49 -42 -22 -0 17 35 36 19 31 34 36 49 39 24 62 72 37 25 40 23 22 27 27 12 45 47 27 27 28 28 31 32 37 40 47 55 59 60 68
25 20 -2 -55 -71 -61 -38 -22 8 27 26 21 18 21 29 37 48 39 27 27 34 69 46 46 38 25 25 36 23 100 66 42 42 42 37 30 24 22 19 17 20 20 21
9 45 13 -45 -68 -53 -54 -47 -22 1 25 28 34 36 30 28 21 21 20 24 25 52 41 23 26 32 28 36 33 86 93 63 53 47 40 31 27 20 11 5 3 5 7
16 8 10 -40 -45 -57 -67 -58 -51 -24 6 22 35 23 16 27 32 31 27 20 54 62 81 26 42 36 45 42 55 92 49 80 68 57 48 35 20 11 12 11 5 -0 -1
12 18 8 -26 -42 -53 -72 -56 -54 -24 -2 22 37 42 35 37 39 31 31 28 46 74 102 155 43 74 44 62 72 48 44 95 79 65 59 46 36 32 27 14 11 20 20
37 33 15 -14 -25 -57 -58 -45 -47 -27 -4 15 29 62 57 53 64 48 36 37 35 62 83 60 68 70 72 76 98 63 79 96 89 77 73 55 59 65 51 42 28 26 22
72 52 69 11 -7 -18 -25 -37 -47 -25 2 18 33 67 75 73 76 78 66 51 64 68 87 82 95 136 99 88 118 81 84 78 93 108 81 74 79 77 79 65 44 33 28
79 91 78 58 10 -7 -14 -27 -35 -22 12 37 54 68 80 95 93 73 81 92 94 86 80 131 108 133 91 103 101 127 99 78 90 176 145 105 99 103 82 74 58 39 45
95 62 63 86 50 21 16 1 -24 -14 10 25 47 78 86 115 131 88 86 111 92 106 122 121 143 130 109 93 92 93 124 103 117 178 139 120 104 90 90 80 79 69 62
107 96 97 102 94 44 28 20 -3 -5 15 22 46 77 101 136 146 134 124 116 115 136 144 144 154 153 152 112 82 55 98 98 74 97 123 121 135 134 103 88 78 86 75
128 135 118 105 104 74 23 38 35 24 38 38 48 83 111 118 146 146 157 159 157 153 148 201 169 172 165 145 129 81 69 86 109 94 83 99 98 110 115 96 68 107 125
163 168 161 146 135 100 60 65 75 62 76 82 83 112 123 155 152 172 187 185 195 161 143 152 149 157 161 137 112 114 79 98 86 137 126 72 97 95 75 63 184 251 133
179 194 192 175 181 167 153 143 154 89 106 116 111 134 154 147 172 159 193 153 198 205 126 137 131 130 143 132 127 127 114 99 81 89 119 82 68 91 85 79 195 135 122
186 184 191 186 178 156 193 234 196 121 134 143 146 146 182 188 225 168 180 208 207 213 173 156 155 92 98 117 122 118 104 105 79 68 113 104 87 91 87 71 144 139 102
172 162 110 114 119 95 172 281 289 162 90 147 182 190 182 183 259 251 195 190 210 178 207 193 200 195 187 161 136 105 109 85 65 83 167 136 71 101 91 61 81 152 84
141 142 170 162 127 83 98 165 275 172 107 131 144 195 224 228 296 301 229 209 258 198 196 249 230 188 167 148 143 118 97 96 86 86 210 154 90 101 89 76 108 80 84

GFSMA_con_3kmhel_033.txt.gz
Helicity
-11 8 10 -5 18 32 14 11 21 19 13 -7 16 62 8 -39 8 68 13 -16 -7 5 20 25 32 29 23 18 14 14 16 17 11 9 4 8 8 8 7 1 -3 1 1
-1 -5 7 34 20 42 -6 5 10 15 50 17 -3 47 -17 9 -40 -4 56 -22 -13 7 15 25 27 33 27 23 23 24 18 18 18 17 8 3 8 9 10 8 0 -5 -6
-7 20 5 -7 9 30 -1 15 8 -13 -8 60 26 12 36 -3 6 -3 45 16 -2 -21 2 11 17 22 26 20 29 20 19 17 19 17 22 16 9 7 3 -4 -6 -11 -11
-2 2 19 18 28 29 16 3 4 14 23 5 16 34 55 29 12 6 -12 10 13 63 -28 -16 11 12 12 9 12 14 13 15 20 16 19 23 22 12 15 13 -11 -14 -16
0 0 39 32 1 19 19 13 3 15 23 38 71 25 40 -3 30 33 1 37 37 53 57 -11 -9 2 10 13 11 12 12 9 12 18 18 17 11 15 6 16 22 -28 -29
5 0 5 15 -2 3 -1 22 -1 2 -3 -22 43 41 22 -11 -10 33 56 37 35 7 58 1 17 27 11 13 19 19 19 19 18 16 15 10 10 13 3 11 30 32 -18
-2 -4 -4 7 9 -5 23 17 19 -5 4 9 10 15 14 -10 8 6 -1 14 27 46 4 38 65 24 6 47 44 42 41 40 46 51 59 63 49 32 28 23 13 9 21
-3 -7 -9 -16 7 2 26 30 3 10 0 4 -1 49 50 47 34 18 32 23 18 32 27 4 35 37 38 32 58 60 64 72 69 69 74 78 79 76 74 72 68 67 60
-2 -5 -11 -8 14 -16 56 33 29 -4 8 14 -31 -3 -2 32 68 48 18 52 6 31 29 19 29 7 40 68 42 48 56 67 74 75 69 65 63 67 69 77 84 83 71
2 -3 -9 -4 -7 -16 32 8 21 10 16 39 25 7 -48 40 4 42 57 68 17 21 34 14 74 46 9 64 96 99 49 48 47 47 45 43 40 42 42 42 43 42 46
0 1 11 -6 -8 -21 11 12 10 21 15 15 37 33 5 8 -13 19 81 114 94 59 72 8 1 89 44 43 111 85 68 55 49 51 48 40 35 31 28 27 28 26 22
28 16 19 18 -15 -40 -24 -12 1 9 16 10 9 13 29 34 51 27 43 111 129 59 49 62 63 15 53 74 69 181 110 85 68 58 55 49 39 33 26 19 15 14 17
11 90 62 43 -15 -47 -47 -35 -10 -6 13 13 9 17 17 12 3 13 12 18 35 35 86 32 39 58 15 34 65 198 141 120 97 88 73 57 51 45 38 37 33 22 15
21 29 130 70 -1 -42 -44 -38 -35 -21 0 12 15 8 6 29 31 38 40 32 72 87 132 55 92 51 77 49 53 113 134 143 129 116 96 85 66 48 49 56 53 42 32
-1 79 119 65 15 -36 -43 -32 -42 -7 -17 11 24 23 19 21 47 50 42 28 35 35 96 208 70 127 46 109 125 78 64 153 132 112 92 85 58 54 60 62 68 70 57
27 78 123 88 31 -1 -21 -21 -31 -29 10 18 17 66 38 26 45 54 51 48 36 34 46 68 115 95 148 57 194 98 74 151 129 119 93 77 65 63 66 71 71 69 55
89 35 125 108 74 35 21 7 -28 -6 37 36 31 76 77 29 44 74 74 72 79 74 86 53 86 198 175 113 171 120 101 93 75 159 124 120 103 84 84 82 93 79 52
114 129 118 146 102 57 44 41 18 5 62 49 61 78 104 77 73 56 85 101 97 108 90 120 74 216 193 163 104 138 69 35 39 168 182 139 133 124 98 102 102 62 55
114 105 115 147 153 116 90 75 57 29 51 78 69 93 108 131 142 110 116 115 121 125 130 103 102 147 161 189 160 101 84 59 39 204 197 144 141 134 125 117 83 74 84
122 110 110 127 154 140 131 108 90 68 57 79 99 96 116 147 162 170 146 139 124 164 144 112 114 104 165 173 173 122 121 113 74 61 131 93 177 148 129 125 85 75 69
128 125 129 151 143 135 118 140 94 72 77 90 114 130 123 161 182 188 180 187 189 192 143 178 149 109 118 157 216 139 133 103 73 83 88 112 96 141 157 149 109 144 145
172 166 190 205 212 161 121 145 148 102 81 96 117 176 170 206 211 229 192 169 205 232 198 140 132 143 140 172 147 123 116 126 90 99 150 108 93 131 73 61 193 202 196
211 213 201 218 215 218 228 238 216 166 115 112 130 169 212 178 255 251 227 177 222 262 204 211 146 98 147 169 183 169 146 112 100 108 123 106 63 86 86 146 144 148 140
184 215 206 202 226 246 224 263 316 237 183 113 117 156 205 213 283 299 263 243 233 283 262 223 211 129 115 146 224 137 117 124 103 75 76 108 55 82 98 79 186 211 175
192 214 228 243 246 248 296 268 295 247 223 190 146 132 134 205 259 367 316 276 259 254 288 270 205 197 225 237 208 134 124 136 89 60 115 103 108 93 101 89 111 204 145
163 156 165 209 233 233 302 396 383 259 246 227 225 205 224 204 249 401 381 342 359 334 285 336 251 208 269 300 269 192 124 123 88 71 133 138 177 129 121 81 112 146 131

GFSMA_con_3kmhel_036.txt.gz
Helicity
5 27 17 15 14 37 8 47 25 24 9 4 27 75 -38 -1 -29 8 1 12 41 37 37 43 35 34 31 28 22 19 14 13 11 13 14 22 22 25 22 17 12 12 19
10 14 10 4 41 45 12 33 20 0 -2 15 30 45 8 -4 -24 23 30 -15 -5 16 29 31 35 29 25 27 27 19 20 15 16 13 15 14 22 19 22 23 15 8 8
3 6 15 29 15 42 27 20 19 5 -54 31 18 32 33 6 -5 41 39 20 -21 -10 11 36 37 35 35 32 28 28 25 22 29 24 27 21 23 23 17 15 22 8 -5
-6 -3 -10 11 19 26 25 9 47 32 1 46 15 17 24 33 -22 38 35 49 17 11 -9 -11 27 37 32 18 35 28 28 26 21 28 21 26 22 16 18 16 24 22 -30
-1 -8 -24 10 12 7 19 30 -4 9 34 43 27 32 0 -20 -5 38 58 68 86 5 -35 -13 -13 14 19 19 24 28 28 28 26 23 23 27 25 17 26 3 22 29 21
15 8 16 9 7 34 22 22 24 3 16 0 20 39 18 14 31 50 43 34 83 76 26 24 0 -17 18 19 14 22 28 28 24 20 21 21 18 18 17 6 9 23 22
14 -2 -7 19 26 21 41 40 33 8 13 -17 5 36 37 -12 46 63 37 -1 60 0 38 26 25 39 7 25 23 32 41 41 58 68 70 66 51 41 34 28 21 13 14
10 -4 -1 5 4 36 15 38 38 1 37 -6 -19 58 52 33 17 -6 55 51 11 13 24 74 72 43 25 44 72 61 63 69 70 64 55 52 54 58 61 65 68 62 53
19 -5 -17 -17 4 26 38 33 30 27 19 -7 -19 12 72 69 49 45 52 78 38 89 52 80 53 100 75 62 49 53 53 50 50 49 49 46 44 50 52 49 48 50 51
23 31 18 0 11 20 55 8 15 13 11 16 -24 1 -17 27 107 53 41 114 102 110 76 113 105 73 75 72 59 62 60 52 55 52 43 35 29 27 29 31 32 33 38
31 5 58 25 12 -23 18 26 18 1 -6 -3 1 -22 -16 32 16 16 36 132 79 123 139 50 133 99 67 159 168 99 96 84 76 61 49 43 43 38 33 30 29 27 25
66 11 90 46 30 -7 14 21 10 4 0 -11 -19 -2 12 26 49 57 67 120 147 132 150 127 103 128 67 193 200 179 164 142 118 94 71 62 50 44 39 36 39 36 29
105 74 43 97 60 8 -32 0 2 -9 -8 -11 -32 9 -21 5 -7 5 -77 65 108 113 111 133 195 131 56 71 181 258 199 164 149 127 99 79 65 53 47 44 37 34 29
83 124 122 149 126 41 -16 -31 10 -19 4 -3 -10 -18 -23 -11 6 21 25 33 51 109 170 153 125 166 154 107 163 219 170 150 140 129 115 98 80 66 53 57 58 53 46
16 95 198 188 147 95 30 -23 -12 9 -13 40 15 1 -12 -6 22 47 48 26 37 44 145 142 133 148 141 234 241 194 167 156 139 127 114 98 82 64 63 62 65 63 61
-6 64 236 192 166 108 74 30 -2 -26 14 31 22 45 41 13 17 67 71 73 50 33 16 101 69 185 159 165 197 197 148 184 157 130 123 109 88 85 83 77 72 70 79
47 -22 158 208 176 141 99 72 40 18 37 46 56 39 101 70 46 71 112 85 101 90 60 27 105 261 284 266 223 189 158 141 128 125 143 116 96 96 92 97 94 91 90
57 48 110 198 230 185 143 119 102 47 55 111 108 90 118 118 76 51 141 144 115 106 119 86 61 186 239 222 222 206 153 86 82 119 233 156 129 102 106 113 102 101 93
113 103 100 204 238 206 170 141 113 81 33 109 120 114 127 166 125 94 126 179 195 178 167 153 115 110 200 258 247 185 126 93 29 101 154 173 159 135 120 123 133 112 89
165 156 161 197 248 240 194 176 146 107 55 21 104 118 139 171 222 185 153 171 204 241 205 196 169 120 131 254 302 267 165 99 87 99 150 170 126 142 130 135 137 118 91
202 213 206 188 221 238 214 196 188 185 160 98 71 158 171 190 216 244 227 197 210 242 291 269 224 183 160 155 311 278 252 178 151 96 114 168 107 166 105 113 124 148 174
127 143 167 188 212 248 271 273 237 198 195 175 132 120 182 205 219 275 249 226 268 284 271 306 285 284 241 158 194 279 286 248 275 202 136 116 134 125 131 136 142 187 171
145 156 184 207 235 265 294 332 322 285 235 207 198 159 142 188 238 274 269 230 213 249 279 271 281 240 253 226 253 293 293 339 290 221 187 153 105 91 76 180 214 141 121
164 181 183 206 231 284 337 377 383 320 333 304 257 236 207 168 222 289 341 321 262 263 285 312 265 226 211 250 290 286 255 245 239 190 160 157 81 78 82 144 177 166 137
179 203 210 217 237 246 308 382 435 351 324 348 368 319 287 257 234 320 345 373 348 292 290 263 227 271 274 266 279 290 257 260 247 159 121 158 99 86 115 140 157 163 143
197 203 214 237 248 219 247 338 446 386 332 352 345 374 371 339 336 396 384 373 383 365 322 333 324 329 330 301 272 241 221 232 259 172 134 207 146 153 160 113 161 125 132